Regional Weather Roundup
Issued by NWS Albany, NY

Home | Current Version | Previous Version | Graphics & Text | Print | Product List | Glossary Off
Versions: 1 2 3 4 5 6 7 8 9 10 11 12 13 14 15 16 17 18 19 20 21 22 23 24 25 26 27 28 29 30 31 32 33 34 35 36 37 38 39 40 41 42 43 44 45 46 47 48 49 50

000
ASUS41 KALY 211510
RWRALY

NEW YORK STATE HOURLY WEATHER ROUNDUP
NATIONAL WEATHER SERVICE ALBANY NY
1000 AM EST SUN JAN 21 2018

NOTE: "FAIR" INDICATES FEW OR NO CLOUDS BELOW 12,000 FEET WITH NO
SIGNIFICANT WEATHER AND/OR NO OBSTRUCTIONS TO VISIBILITY.

NYZ032-033-038>043-046>054-057>066-NYZ062>081-082-084-211600-
EAST


CITY           SKY/WX    TMP DP  RH WIND       PRES   REMARKS
ALBANY         CLOUDY    38  29  70 W8        30.19R WCI  32
GLENS FALLS    CLOUDY    36  31  82 S5        30.15R WCI  32
POUGHKEEPSIE   FAIR      32  26  78 CALM      30.18R
NEWBURGH       PTSUNNY   36  28  75 CALM      30.17R
MONTGOMERY     FAIR      36  28  73 SE6       30.16R WCI  31
WHITE PLAINS   FAIR      41  29  62 N3        30.17R
ISLIP          CLOUDY    45  31  58 N8        30.17R
NEW YORK CITY  PTSUNNY   45  30  55 NW6       30.18R
CENTRAL PARK   FAIR      45  29  53 NW6       30.21R
$$

NYZ005>009-017-018-044>046-055-056-211600-
CENTRAL


CITY           SKY/WX    TMP DP  RH WIND       PRES   REMARKS
FULTON         FAIR      36  29  75 SW5       30.15S WCI  32
SYRACUSE       PTSUNNY   33  29  85 CALM      30.16R
ROME           CLOUDY    33  29  85 S5        30.18R WCI  29
ELMIRA         CLOUDY    32  30  92 CALM      30.16R
BINGHAMTON     CLOUDY    31  26  82 SW5       30.13R WCI  26
MONTICELLO     FAIR      37  28  70 NW9       30.15R WCI  30
$$

NYZ026>034-041>043-087-211600-
NORTH


CITY           SKY/WX    TMP DP  RH WIND       PRES   REMARKS
WATERTOWN      PTSUNNY   37  34  89 S7        30.14S FOG     WCI  32
FORT DRUM      NOT AVBL
OGDENSBURG     FAIR      35  35  96 S5        30.13S FOG     WCI  31
MASSENA        CLOUDY    35  32  88 S5        30.15S WCI  31
SARANAC LAKE   PTSUNNY   34  30  85 SW9       30.06R WCI  27
PLATTSBURGH    CLOUDY    34  26  72 E3        30.14R
$$

NYZ001>004-010>016-019>021-085-211600-
WEST


CITY           SKY/WX    TMP DP  RH WIND       PRES   REMARKS
NIAGARA FALLS  FAIR      35  30  82 S8        30.11F HAZE    WCI  29
BUFFALO        CLOUDY    36  34  92 SW5       30.12S FOG     WCI  32
DUNKIRK        CLOUDY    54  36  50 S7        30.13R
JAMESTOWN      CLOUDY    36  36 100 S6        30.11R FOG     WCI  31
WELLSVILLE     CLOUDY    37  35  92 SW5       30.11S FOG     WCI  33
ROCHESTER      PTSUNNY   37  32  82 SW10      30.13S WCI  30
PENN YAN       FAIR      38  29  70 S9        30.13S WCI  31
$$

             KEY
       WCI = WIND CHILL INDEX
       VSB = VISIBILITY
       HX  = HEAT INDEX
$$



USA.gov is the U.S. government's official web portal to all federal, state and local government web resources and services.